Find Starlink 11464

NORAD ID: 62473 Int'l Des: 2024-254 Owner: SPXS Country: US Constellation: starlink operational
LEOCIRCULAR

Current View

Loading 3D Globe...

About Starlink 11464

Starlink 11464 (NORAD 62473) is a starlink constellation satellite (v2 mini d2c) launched Dec 31, 2024 by SPXS of US. It operates in LEO, CIRCULAR orbit with a mass of 960.00 kg.

About Starlink 11464

Description loading...

Upcoming Passes

Passes for default location (London). Set your location on the main map for personalized predictions.

Altitude History

Loading altitude history...

Two-Line Element Set

1 62473U 24254M 26167.52508959 .00170782 00000-0 13046-2 0 9995
2 62473 43.0000 347.3952 0002512 261.7039 98.3544 15.70887581 84995
Epoch: Jun 16, 2026 • Age: 9 hours

Current Status

Altitude 367.6 km
Velocity 7.69 km/s
Sub-Earth Point -43.16°S, 29.79°E
Launch Date Dec 31, 2024
Age 1.4 years
Type internet

Technical Details

Classification Payload
Mass 960.00 kg
Dry Mass 910.00 kg
Total Mass 960.00 kg
Length 0.30 m
Diameter 4.10 m
Span 29.00 m
Shape Box + pan
Manufacturer SPXS
Bus Type Starlink V2MD
Phase Status In Orbit
Owner/State SPXS/US

Most Searched